Location: Unspecified
(40.7945°N, 0.0000°E)
Time: 20:07:35
(UTC+00:00)

X-37B - Visible Passes

Search period start: 29 November 2020 00:00
Search period end: 09 December 2020 00:00
Orbit: 384 x 389 km, 45.0° (Epoch: 12 November)

Date Brightness Start Highest point End Pass type
(mag) Time Alt. Az. Time Alt. Az. Time Alt. Az.
29 Nov 0.5 17:44:19 10° WSW 17:47:30 85° SSE 17:48:55 30° ENE visible
30 Nov 1.5 18:22:33 10° W 18:25:15 42° NW 18:25:15 42° NW visible
01 Dec 0.8 17:23:49 10° W 17:26:58 61° NNW 17:29:18 16° ENE visible
01 Dec 3.6 19:00:56 10° WNW 19:01:34 14° WNW 19:01:34 14° WNW visible
02 Dec 1.4 18:02:12 10° WNW 18:05:11 37° N 18:05:36 35° NNE visible
03 Dec 1.2 17:03:25 10° W 17:06:29 45° NNW 17:09:33 10° ENE visible
03 Dec 2.8 18:40:28 10° WNW 18:41:55 22° NW 18:41:55 22° NW visible
04 Dec 1.5 17:41:47 10° WNW 17:44:45 36° N 17:46:00 25° NE visible
05 Dec 1.5 18:19:56 10° WNW 18:22:24 40° NNW 18:22:24 40° NNW visible
06 Dec 1.3 17:21:19 10° WNW 17:24:21 38° N 17:26:35 16° ENE visible
06 Dec 3.4 18:57:58 10° WNW 18:58:52 17° WNW 18:58:52 17° WNW visible
07 Dec 0.5 17:59:23 10° WNW 18:02:32 67° NNE 18:03:10 50° ENE visible
08 Dec 1.0 17:00:48 10° WNW 17:03:54 47° NNE 17:06:59 10° E visible
08 Dec 2.1 18:37:30 10° WNW 18:39:54 36° WSW 18:39:54 36° WSW visible
